Shreveport, LA

8:50 PM CDT on August 23, 2016 (GMT -0500)
Shreveport Downtown

Weather History for KDTN - May, 2013

Change the Weather History Date:

Sunday, May 19, 2013

  Actual Average (KSHV) Record (KSHV)
Temperature  
Mean Temperature 80 °F 74 °F  
Max Temperature 90 °F 85 °F 94 °F (1875)
Min Temperature 69 °F 64 °F 48 °F (1976)
Degree Days  
Heating Degree Days 0 0  
Month to date heating degree days 5  
Since 1 July heating degree days 2224  
Cooling Degree Days 14 9  
Month to date cooling degree days 135  
Year to date cooling degree days 270  
Growing Degree Days 30 (Base 50)    
Moisture  
Dew Point 67 °F    
Average Humidity 71    
Maximum Humidity 94    
Minimum Humidity 45    
Precipitation  
Precipitation 0.00 in 0.15 in 2.52 in (2000)
Month to date precipitation 3.04  
Year to date precipitation 20.32  
Snow  
Snow 0.00 in - - ()
Month to date snowfall  
Since 1 July snowfall  
Snow Depth -    
Sea Level Pressure  
Sea Level Pressure 29.87 in    
Wind  
Wind Speed 9 mph (SSE)    
Max Wind Speed 22 mph    
Max Gust Speed 28 mph    
Visibility 10 miles    
Events      
T = Trace of Precipitation, MM = Missing Value Source: NWS Daily Summary

Daily Weather History Graph

Daily Weather History Graph

Search for Another Location

Airport or City:

Trip Planner

Search our weather history database for the weather conditions in past years. The results will help you decide how hot, cold, wet, or windy it might be!

Date:

Astronomy

May. 19, 2013 Rise Set
Actual Time 6:13 AM CDT 8:09 PM CDT
Civil Twilight 5:46 AM CDT 8:36 PM CDT
Nautical Twilight 5:13 AM CDT 9:10 PM CDT
Astronomical Twilight 4:38 AM CDT 9:45 PM CDT
Moon 2:32 PM CDT (5/19) 2:17 AM CDT (5/19)
Length of Visible Light 14h 50m
Length of Day
13h 55m
Waxing Gibbous, 65% of the Moon is Illuminated
May 19
Waxing Gibbous
May 24
Full
May 31
Last Quarter
Jun 8
New
Jun 16
First Quarter

Hourly Weather History & Observations

Time (CDT) Temp. Heat Index Dew Point Humidity Pressure Visibility Wind Dir Wind Speed Gust Speed Precip Events Conditions
12:53 AM 75.0 °F - 68.0 °F 79% 29.90 in 10.0 mi South 8.1 mph - N/A   Clear
1:53 AM 73.0 °F - 66.9 °F 81% 29.88 in 10.0 mi South 5.8 mph - N/A   Clear
2:53 AM 72.0 °F - 66.0 °F 81% 29.87 in 10.0 mi SE 5.8 mph - N/A   Clear
3:53 AM 71.1 °F - 66.9 °F 87% 29.87 in 10.0 mi South 6.9 mph - N/A   Clear
4:53 AM 71.1 °F - 66.9 °F 87% 29.88 in 10.0 mi South 9.2 mph - N/A   Partly Cloudy
5:29 AM 71.6 °F - 68.0 °F 88% 29.89 in 10.0 mi South 6.9 mph - N/A   Mostly Cloudy
5:53 AM 70.0 °F - 68.0 °F 93% 29.88 in 9.0 mi SSE 5.8 mph - N/A   Mostly Cloudy
6:08 AM 69.8 °F - 66.2 °F 88% 29.89 in 9.0 mi SE 4.6 mph - N/A   Scattered Clouds
6:28 AM 69.8 °F - 66.2 °F 88% 29.89 in 7.0 mi SE 3.5 mph - N/A   Mostly Cloudy
6:36 AM 69.8 °F - 68.0 °F 94% 29.89 in 7.0 mi SE 4.6 mph - N/A   Scattered Clouds
7:53 AM 72.0 °F - 69.1 °F 91% 29.91 in 7.0 mi SE 5.8 mph - N/A   Clear
8:31 AM 73.4 °F - 69.8 °F 88% 29.92 in 9.0 mi South 8.1 mph - N/A   Mostly Cloudy
8:53 AM 73.9 °F - 69.1 °F 85% 29.92 in 9.0 mi South 8.1 mph - N/A   Overcast
9:12 AM 75.2 °F - 69.8 °F 83% 29.92 in 10.0 mi SSE 9.2 mph - N/A   Overcast
9:53 AM 79.0 °F - 69.1 °F 72% 29.90 in 10.0 mi SSE 11.5 mph - N/A   Mostly Cloudy
10:04 AM 78.8 °F - 69.8 °F 74% 29.91 in 10.0 mi South 12.7 mph 20.7 mph N/A   Scattered Clouds
10:53 AM 82.9 °F 85.4 °F 66.9 °F 58% 29.90 in 10.0 mi South 17.3 mph - N/A   Partly Cloudy
11:53 AM 84.9 °F 87.6 °F 66.9 °F 55% 29.89 in 10.0 mi South 15.0 mph 23.0 mph N/A   Partly Cloudy
12:53 PM 87.1 °F 90.6 °F 68.0 °F 53% 29.88 in 10.0 mi SSE 11.5 mph - N/A   Partly Cloudy
2:53 PM 89.1 °F 92.1 °F 66.9 °F 48% 29.84 in 10.0 mi SSE 12.7 mph 27.6 mph N/A   Scattered Clouds
3:53 PM 90.0 °F 93.6 °F 68.0 °F 48% 29.83 in 10.0 mi South 12.7 mph - N/A   Scattered Clouds
4:43 PM 89.6 °F 92.2 °F 66.2 °F 46% 29.82 in 10.0 mi SSE 18.4 mph 25.3 mph N/A   Partly Cloudy
4:53 PM 90.0 °F 92.8 °F 66.9 °F 46% 29.81 in 10.0 mi SSE 18.4 mph 26.5 mph N/A   Scattered Clouds
5:53 PM 89.1 °F 91.0 °F 64.9 °F 45% 29.79 in 10.0 mi South 17.3 mph 25.3 mph N/A   Clear
6:53 PM 87.1 °F 88.3 °F 64.0 °F 46% 29.79 in 10.0 mi South 21.9 mph 27.6 mph N/A   Clear
7:53 PM 84.0 °F 86.3 °F 66.0 °F 55% 29.80 in 10.0 mi SSE 16.1 mph 21.9 mph N/A   Clear
8:53 PM 82.0 °F 84.1 °F 66.0 °F 58% 29.83 in 10.0 mi South 11.5 mph 23.0 mph N/A   Clear
9:53 PM 80.1 °F 82.3 °F 66.9 °F 64% 29.84 in 10.0 mi South 11.5 mph 19.6 mph N/A   Clear
11:53 PM 78.1 °F - 69.1 °F 74% 29.86 in 10.0 mi South 12.7 mph 21.9 mph N/A   Clear